www.pogodaiklimat.ru

Погода и климат >> Архив погоды >> Нигер >> Гуре


ПОГОДА в Гуре

  • Прогноз погоды в Гуре
  • Монитор погоды в Гуре

АРХИВ ПОГОДЫ в Гуре

Время (UTC), дата Ветер
(напр.,м/с)
 
Видим.   Явления Облачность Т
(С)
Тd
(С)
f
(%)
Тe
(С)
Тes
(С)
Комфортность P
(гПа)
Po
(гПа)
Тmin
(С)
Tmax
(С)
R
(мм)
R24
(мм)
S
(см)
18 16.08 штиль 0 10 км 9/0
[Ac cuf Ci sp]
+29.5 +22.6 66 +39 +39 очень
душно
1010.6 959.6 +32.5
21 16.08 штиль 0 10 км 9/0
[Ac cuf Ci sp]
+27.5 +24.0 81 +38 +38 очень
душно
1012.7 961.8
00 17.08 штиль 0 10 км 9/0
[Ac cuf Ci sp]
+27.0 +22.4 76 +35 +35 очень
душно
1012.3 961.6
03 17.08 штиль 0 10 км 9/0
[Cs]
+26.0 +22.4 81 +34 +34 очень
душно
1009.7 960.9
06 17.08 З 2 10 км 9/3 1000 м
[Sc Ac cuf Ci sp]
+25.5 +22.6 84 +34 +34 очень
душно
1010.7 961.6 +25.5
09 17.08 З 2 12 км 9/0
[Ac trans Ci sp]
+29.4 +22.4 66 +38 +46 очень
душно
1013.3 962.6
12 17.08 З 2 10 км 9/1 1200 м
[Cu hum Ac trans Ci sp]
+32.0 +22.8 58 +42 +53 опасность
перегрева
1012.0 961.5
15 17.08 З 2 10 км гроза без осадков 9/6 900 м
[Cb cap Ci sp]
+31.5 +21.4 55 +39 +42 очень
душно
1008.9 958.5
18 17.08 штиль 0 10 км зарница {гроза} 9/3 900 м
[Cb cap Ci sp]
+30.0 +22.6 65 +40 +40 очень
душно
1009.6 958.9 +33.6
21 17.08 штиль 0 10 км гроза без осадков 10/4 900 м
[Cb cap Ac As]
+24.0 +22.6 92 +31 +31 очень
душно
1012.6 961.6
00 18.08 З 4 10 км {гроза, дождь} 10/0
[Ac As]
+24.5 +22.4 88 +32 +32 очень
душно
1010.8 960.2 19
03 18.08 штиль 0 10 км 10/0
[Ac As]
+24.5 +22.4 88 +32 +32 очень
душно
1010.0 959.3
06 18.08 штиль 0 10 км 9/0
[Ac As Ci sp]
+24.5 +23.0 91 +32 +33 очень
душно
1010.7 959.9 +21.5 19
09 18.08 З 2 10 км 9/0
[Ac und Ci sp]
+28.0 +24.1 79 +39 +45 очень
душно
1012.5 961.4
12 18.08 З 2 10 км 9/3 1200 м
[Cu med, cong Ac trans Ci sp]
+33.0 +21.5 51 +41 +50 опасность
перегрева
1010.8 960.2
15 18.08 З 2 10 км 9/3 1200 м
[Cb cap Ac cuf Ci sp]
+35.2 +20.7 43 +42 +45 опасность
перегрева
1006.6 965.4
18 18.08 З 4 10 км зарница 9/4 1200 м
[Cb cap Ac cuf Ci sp]
+29.0 +19.2 55 +34 +34 очень
душно
1007.1 956.4 +35.0
21 18.08 З 6 10 км гроза, ливневой дождь 9/4 1200 м
[Cb cap Ac As]
+24.5 +20.8 80 +31 +31 очень
душно
1011.4 960.4
00 19.08 штиль 0 10 км гроза, ливневой дождь 10/3 1200 м
[Cb cap Ac As]
+22.0 +21.3 96 +29 +29 очень
душно
1011.4 960.6 19
03 19.08 штиль 0 10 км в посл. час гроза {дождь} 9/0
[Ac As Ci sp]
+23.0 +20.0 83 +30 +30 очень
душно
1008.6 958.2
06 19.08 штиль 0 10 км {гроза, дождь} 10/0
[Ac As]
+23.0 +22.6 98 +32 +32 очень
душно
1010.1 959.1 +21.8 19
09 19.08 штиль 0 10 км 9/0
[Ac trans Ci sp]
+27.5 +23.2 77 +37 +50 очень
душно
1011.7 960.6
12 19.08 штиль 0 10 км 9/0
[Ac trans Cs]
+31.5 +22.2 58 +41 +63 опасность
перегрева
1010.5 959.7
15 19.08 штиль 0 10 км 9/4 1000 м
[Cu med, cong Ci sp]
+33.0 +21.5 51 +41 +46 опасность
перегрева
1009.0 958.4
18 19.08 штиль 0 10 км зарница 9/1 900 м
[Cb cap Ci sp]
+29.5 +23.1 69 +40 +40 очень
душно
1009.0 958.1 +33.5
21 19.08 штиль 0 10 км 9/0
[Cs]
+27.5 +24.0 81 +38 +38 очень
душно
1011.5 960.7
00 20.08 штиль 0 10 км 9/0
[Cs]
+26.5 +23.7 85 +36 +36 очень
душно
1011.2 960.6
03 20.08 штиль 0 10 км 9/0
[Cs]
+24.5 +21 +21 комфорт 1010.8 960.2
06 20.08 штиль 0 10 км 9/0
[Ac trans Cs]
+25.0 +21.4 80 +32 +33 очень
душно
1012.4 961.5 +24.3
09 20.08 З 6 10 км 9/1 1200 м
[Cu hum Ac trans Ci sp]
+28.0 +21.5 68 +36 +39 очень
душно
1013.3 962.5
12 20.08 З 4 10 км 9/3 1200 м
[Cu hum Ac As Ci sp]
+31.5 +21.4 55 +39 +45 очень
душно
1011.9 961.3
15 20.08 З 4 10 км 9/4 1200 м
[Cu hum Ac As Ci sp]
+31.0 +20.8 55 +38 +40 очень
душно
1009.9 959.2
18 20.08 З 4 10 км зарница 9/3 900 м
[Cb cap Ac As Ci sp]
+29.5 +21.6 63 +38 +38 очень
душно
1010.4 959.6 +33.0
21 20.08 В 2 10 км гроза, ливневой дождь 10/4 900 м
[Cb cap Ac As]
+22.4 +21.8 96 +30 +30 очень
душно
1014.9 963.5
00 21.08 штиль 0 10 км слаб. дождь {гроза} 10/0
[Ac As]
+22.0 +21.3 96 +29 +29 очень
душно
1013.4 962.4 23
03 21.08 З 4 10 км слаб. дождь 10/0
[Ac As]
+22.0 +21.3 96 +29 +29 очень
душно
1012.2 961.2
06 21.08 штиль 0 10 км {дождь} 10/0
[Ac As]
+22.0 +21.3 96 +29 +29 очень
душно
1012.6 961.5 +21.5 27
09 21.08 З 2 10 км 9/4 600 м
[Sc Ac As]
+25.0 +22.0 83 +32 +36 очень
душно
1015.0 963.4
12 21.08 З 2 10 км 9/4 1000 м
[Cu med, cong Ac cuf Ci sp]
+27.6 +22.4 73 +36 +44 очень
душно
1013.6 962.3
15 21.08 штиль 0 10 км 9/3 1200 м
[Cu med, cong Ac As Ci sp]
+27.4 +21.7 71 +35 +39 очень
душно
1011.1 959.9
18 21.08 штиль 0 10 км 9/0
[Ac As Ci sp]
+26.0 +22.4 81 +34 +34 очень
душно
1011.2 959.8 +28.0
21 21.08 штиль 0 10 км 10/0
[Ac As]
+25.5 +21.8 80 +33 +33 очень
душно
1012.9 961.7
00 22.08 штиль 0 10 км 9/1 1200 м
[Cu med, cong Ac trans Ci sp]
+24.0 +22.6 92 +31 +31 очень
душно
1012.4 961.3
03 22.08 штиль 0 10 км в посл. час дождь 10/0
[Ac As]
+23.8 +22.7 94 +31 +31 очень
душно
1011.6 960.5
06 22.08 штиль 0 10 км {дождь} 9/4 600 м
[Sc Ac trans Ci sp]
+23.5 +22.8 96 +31 +32 очень
душно
1012.5 961.2 +23.0 0.7
09 22.08 штиль 0 10 км 9/6 900 м
[Cu med, cong Ci sp]
+27.0 +22.4 76 +35 +42 очень
душно
1014.0 961.9
12 22.08 З 2 10 км 9/6 900 м
[Cu med, cong Ci sp]
+29.0 +22.6 68 +38 +45 очень
душно
1012.6 961.6
15 22.08 штиль 0 10 км 9/6 900 м
[Cu med, cong Ac cuf Ci sp]
+30.0 +21.6 61 +38 +41 очень
душно
1011.0 960.0
18 22.08 штиль 0 10 км 9/3 1000 м
[Cu med, cong Ac cuf Ci sp]
+28.0 +22.3 71 +37 +37 очень
душно
1011.4 960.3 +31.2
21 22.08 штиль 0 10 км 9/0
[Cs]
+24.8 +23.4 92 +33 +33 очень
душно
1014.4 963.2
00 23.08 штиль 0 10 км 9/1 600 м
[Sc Cs]
+24.5 +22.4 88 +32 +32 очень
душно
1013.7 962.7
03 23.08 штиль 0 10 км 9/0
[Cs]
+23.5 +22.2 92 +30 +30 очень
душно
1013.3 962.3
06 23.08 штиль 0 10 км 9/3 1200 м
[Cu med, cong Cs]
+25.0 +22.3 85 +33 +33 очень
душно
1015.0 963.9 +23.5
09 23.08 З 2 10 км 9/4 570 м
[Cu med, cong Ci sp]
+28.5 +22.0 68 +37 +45 очень
душно
1015.8 964.6
12 23.08 З 2 10 км 9/6 1200 м
[Cu med, cong Ci sp]
+31.5 +21.4 55 +39 +47 очень
душно
1013.5 962.7
15 23.08 З 2 10 км 9/4 1200 м
[Cu hum Ci sp]
+32.5 +21.6 53 +41 +45 опасность
перегрева
1011.3 960.6

 

Местоположение метеостанции Гуре (Нигер): широта 13.98 долгота 10.30 высота над уровнем моря 460 м.

В архиве по умолчанию представлена погода в Гуре за последнюю неделю. Архивные данные за месяц целиком и за предыдущие месяцы, начиная с января 2011 года, Вы можете получить, выбрав интересующий диапазон дат из раскрывающегося списка и нажав кнопку "Ввод!".


*Определитесь, кто Вы:
робот инопланетянин человек

Внимание! Время в таблицах - всемирное. Для получения местного времени необходимо прибавить поправку, которая равна 1 ч.

Смотрите также архив погоды в соседних городах и на ближайших метеорологических станциях:

Погода в Зиндере (Нигер) (144 км)
Погода в Магарьа (Нигер) (185 км)
Погода в Майне-Сороа (Нигер) (200 км)
Погода в Диффе (Нигер) (275 км)
Погода в Кано (Нигерия) (288 км)
Погода в Кацине (Нигерия) (303 км)
Погода в Нгигми (Нигер) (306 км)
Погода в Маради (Нигер) (353 км)
Погода в Агадесе (Нигер) (416 км)
Погода в Гомбе (Нигерия) (422 км)

Пояснения к столбцам:

Ветер - указаны скорость ветра в м/с - средняя за 10 мин, порывы в срок и между сроками (в фигурных скобках) и направление, откуда дует ветер: С - северный, СВ - северо-восточный, В - восточный, ЮВ - юго-восточный, Ю - южный, ЮЗ - юго-западный, З - западный, СЗ - северо-западный.
Видимость - горизонтальная дальность видимости в метрах или километрах. При видимости от 1 до 10 км при отсутствии осадков обычно наблюдается дымка, при ухудшении видимости до 1 км и менее - туман. В сухую погоду видимость может ухудшаться дымом, пылью или мглою.
Явления - указаны атмосферные явления, наблюдавшиеся в срок или в последний час перед сроком; фигурными скобками обозначены явления, наблюдавшиеся между сроками (за 1-3 часа до срока); квадратными скобками обозначены град или гололедные отложения с указанием их диаметра в мм.
Облачность - указаны через наклонную черту общая и нижняя облачность в баллах и высота нижней границы облаков в метрах; квадратными скобками обозначены формы облаков: Ci - перистые, Cs - перисто-слоистые, Cc - перисто-кучевые, Ac - высококучевые, As - высокослоистые, Sc - слоисто-кучевые, Ns - слоисто-дождевые, Cu - кучевые, Cb - кучево-дождевые. Подробнее классификацию облаков см. в Атласе облаков (PDF).
T - Температура воздуха - температура, измеренная на высоте 2 м над землей.
Td - Температура точки росы - температура, при понижении до которой содержащийся в воздухе водяной пар достигнет насыщения.
f - Относительная влажность воздуха - влажноcть воздуха, измеренная на высоте 2 м над землей.
Te - Эффективная температура - температура, которую ощущает одетый по сезону человек в тени. Характеристика душности погоды. При расчете учитывается влияние влажности воздуха и скорости ветра на теплоощущения человека.
Tes - Эффективная температура на солнце - температура, которую ощущает человек, с поправкой на солнечный нагрев. Характеристика знойности погоды. Зависит от высоты солнца над горизонтом, облачности и скорости ветра. Ночью, в пасмурную погоду, а также при ветре 12 м/с и более поправка равна нулю.
P - Атмосферное давление - приведенное к уровню моря атмосферное давление.
Po - Атмосферное давление - измеренное на уровне метеостанции атмосферное давление.
Tmin - Минимальная температура - минимум температуры воздуха на высоте 2 м над землей.
Tmax - Максимальная температура - максимум температуры воздуха на высоте 2 м над землей.
R - Количество осадков - Количество выпавших осадков за период времени, мм. При наведении курсора мыши на число - период времени, за который выпало указанное количество осадков.
R24 - Количество осадков - Количество выпавших осадков за 24 часа, мм.
S - Снежный покров - Высота снежного покрова, см. При наведении курсора мыши на число - состояние снежного покрова и степень покрытия местности в баллах.